Location: ?????
(55.8833°N, 37.6500°E)
Time: 06:29:15
(UTC+00:00)

Terra - Pass Details

Date: 27 February 2020
Orbit: 702 x 703 km, 98.2° (Epoch: 09 April)

Event Time Altitude Azimuth Distance (km) Brightness Sun altitude
Exits shadow 18:18:38 26° 18° (NNE) 1,366 3.3 -28.0°
Drops below altitude 10° 18:21:08 10° 356° (N) 2,186 4.7 -28.3°
Sets 18:23:31 0° 348° (NNW) 3,109 5.7 -28.6°
